{"data":{"norad_id":67875,"epoch":"2026-05-25T04:12:05.308416Z","epoch_age_seconds":70226,"freshness":"FRESH","line1":"1 67875U 26034AB  26145.17506144  .00015539  00000+0  51120-3 0  9998","line2":"2 67875  53.1587 208.4208 0001311  89.0315 271.0836 15.31715977 15751","mean_motion":15.31715977,"eccentricity":0.0001311,"inclination_deg":53.1587,"raan_deg":208.4208,"arg_perigee_deg":89.0315,"mean_anomaly_deg":271.0836,"bstar":0.0005112,"rev_number":1575,"period_min":94.01220732974,"perigee_km":469.79448750373,"apogee_km":471.59025056429,"semimajor_km":6848.829369034,"source":"CELESTRAK","updated_at":"2026-05-25T13:38:21.730200Z"}}